{"data":{"norad_id":46070,"intl_designator":"2020-055AV","name":"STARLINK-1536","alt_names":[],"object_type":"PAYLOAD","status":"ACTIVE","operator":null,"country":"US","launch_date":"2020-08-07","launch_site_code":"AFETR","launch_vehicle":null,"mission":null,"orbit_class":"UNKNOWN","rcs_meters":null,"size_class":null,"mass_kg":null,"dimensions":null,"purposes":["comms"],"wikipedia_slug":null,"has_3d_model":false,"image_url":null,"decayed_at":null,"tle_current":{"epoch":"2026-09-19T13:37:57.207072Z","epoch_age_seconds":98828,"freshness":"FRESH","line1":"1 46070U 20055AV  26262.56802323  .00003465  00000+0  12336-3 0  9991","line2":"2 46070  53.1595 279.4910 0001660  90.4112 269.7079 15.31706829338948","mean_motion":15.31706829,"eccentricity":0.000166,"inclination_deg":53.1595,"raan_deg":279.491,"arg_perigee_deg":90.4112,"mean_anomaly_deg":269.7079,"bstar":0.00012336,"rev_number":33894,"period_min":94.012768810343,"perigee_km":469.58272820566,"apogee_km":471.85654860961,"semimajor_km":6848.8566384076,"source":"CELESTRAK","updated_at":"2026-09-20T09:00:38.464475Z"}}}